Location: Ústí nad Labem
(50.6611°N, 14.0531°E)
Time: 16:14:06
(UTC+02:00)

S-56A Canister/Altair - Pass Details

Date: 24 April 2024
Orbit: 638 x 2488 km, 38.9° (Epoch: 25 May)

Event Time Altitude Azimuth Distance (km) Brightness Sun altitude
Rises 20:47:57 0° 261° (W) 3,516 11.8 -5.7°
Reaches altitude 10° 20:50:39 10° 247° (WSW) 2,784 11.0 -6.0°
Maximum altitude 20:56:01 25° 195° (SSW) 2,292 9.8 -6.8°
Drops below altitude 10° 21:03:13 10° 145° (SE) 3,829 10.5 -7.8°
Enters shadow 21:04:40 - 141° (SE) 4,253 10.7 -7.9°
